Time,TemperatureF,DewpointF,PressureIn,WindDirection,WindDirectionDegrees,WindSpeedMPH,WindSpeedGustMPH,Humidity,HourlyPrecipIn,Conditions,Clouds,dailyrainin,SoftwareType,DateUTC
2013-06-05 00:02:00,52.0,48.0,-100.00,NE,44,0.0,4.0,87,-99.99,,,-99.99,,2013-06-05 07:02:00,
2013-06-05 00:12:00,53.0,47.0,-100.00,ENE,64,2.0,2.0,80,-99.99,,,-99.99,,2013-06-05 07:12:00,
2013-06-05 00:22:00,55.0,45.0,-100.00,ENE,67,1.0,2.0,70,-99.99,,,-99.99,,2013-06-05 07:22:00,
2013-06-05 00:32:00,55.0,43.0,-100.00,ENE,59,1.0,2.0,64,-99.99,,,-99.99,,2013-06-05 07:32:00,
2013-06-05 00:42:00,57.0,41.0,-100.00,SE,131,1.0,2.0,54,-99.99,,,-99.99,,2013-06-05 07:42:00,
2013-06-05 00:52:00,55.0,44.0,-100.00,ENE,67,0.0,3.0,66,-99.99,,,-99.99,,2013-06-05 07:52:00,
2013-06-05 01:02:00,54.0,40.0,-100.00,NE,48,2.0,4.0,60,-99.99,,,-99.99,,2013-06-05 08:02:00,
2013-06-05 01:12:00,55.0,45.0,-100.00,NE,34,2.0,5.0,70,-99.99,,,-99.99,,2013-06-05 08:12:00,
2013-06-05 01:22:00,54.0,43.0,-100.00,NE,37,3.0,4.0,65,-99.99,,,-99.99,,2013-06-05 08:22:00,
2013-06-05 01:32:00,54.0,39.0,-100.00,NE,48,3.0,4.0,56,-99.99,,,-99.99,,2013-06-05 08:32:00,
2013-06-05 01:42:00,57.0,35.0,-100.00,NNE,31,3.0,3.0,43,-99.99,,,-99.99,,2013-06-05 08:42:00,
2013-06-05 01:52:00,58.0,33.0,-100.00,NE,48,2.0,2.0,38,-99.99,,,-99.99,,2013-06-05 08:52:00,
2013-06-05 02:02:00,57.0,31.0,-100.00,ESE,104,2.0,2.0,37,-99.99,,,-99.99,,2013-06-05 09:02:00,
2013-06-05 02:12:00,56.0,31.0,-100.00,ESE,121,1.0,2.0,39,-99.99,,,-99.99,,2013-06-05 09:12:00,
2013-06-05 02:22:00,52.0,30.0,-100.00,East,89,1.0,3.0,43,-99.99,,,-99.99,,2013-06-05 09:22:00,
2013-06-05 02:32:00,52.0,30.0,-100.00,East,92,1.0,3.0,43,-99.99,,,-99.99,,2013-06-05 09:32:00,
2013-06-05 02:42:00,52.0,29.0,-100.00,East,93,2.0,4.0,41,-99.99,,,-99.99,,2013-06-05 09:42:00,
2013-06-05 02:52:00,51.0,27.0,-100.00,ENE,64,3.0,5.0,39,-99.99,,,-99.99,,2013-06-05 09:52:00,
2013-06-05 03:02:00,51.0,27.0,-100.00,ENE,78,3.0,6.0,39,-99.99,,,-99.99,,2013-06-05 10:02:00,
2013-06-05 03:12:00,52.0,26.0,-100.00,ENE,77,2.0,5.0,36,-99.99,,,-99.99,,2013-06-05 10:12:00,
2013-06-05 03:22:00,52.0,25.0,-100.00,ENE,74,3.0,5.0,35,-99.99,,,-99.99,,2013-06-05 10:22:00,
2013-06-05 03:33:00,53.0,25.0,-100.00,East,99,1.0,6.0,33,-99.99,,,-99.99,,2013-06-05 10:33:00,
2013-06-05 03:42:00,53.0,23.0,-100.00,ENE,72,3.0,5.0,31,-99.99,,,-99.99,,2013-06-05 10:42:00,
2013-06-05 03:52:00,53.0,22.0,-100.00,ENE,61,2.0,4.0,29,-99.99,,,-99.99,,2013-06-05 10:52:00,
2013-06-05 04:02:00,54.0,21.0,-100.00,ENE,72,2.0,5.0,27,-99.99,,,-99.99,,2013-06-05 11:02:00,
2013-06-05 04:12:00,55.0,20.0,-100.00,NE,46,3.0,6.0,25,-99.99,,,-99.99,,2013-06-05 11:12:00,
2013-06-05 04:21:00,59.0,20.0,-100.00,NE,34,4.0,5.0,22,-99.99,,,-99.99,,2013-06-05 11:21:00,
2013-06-05 04:32:00,59.0,20.0,-100.00,North,4,2.0,4.0,22,-99.99,,,-99.99,,2013-06-05 11:32:00,
2013-06-05 04:42:00,58.0,21.0,-100.00,NNW,343,2.0,4.0,24,-99.99,,,-99.99,,2013-06-05 11:42:00,
2013-06-05 04:52:00,58.0,23.0,-100.00,North,357,1.0,4.0,26,-99.99,,,-99.99,,2013-06-05 11:52:00,
2013-06-05 05:02:00,56.0,23.0,-100.00,NE,55,4.0,4.0,28,-99.99,,,-99.99,,2013-06-05 12:02:00,
2013-06-05 05:12:00,55.0,24.0,-100.00,ENE,63,2.0,2.0,30,-99.99,,,-99.99,,2013-06-05 12:12:00,
2013-06-05 05:22:00,58.0,30.0,-100.00,NNE,25,1.0,2.0,34,-99.99,,,-99.99,,2013-06-05 12:22:00,
2013-06-05 05:32:00,58.0,30.0,-100.00,NNE,18,2.0,3.0,34,-99.99,,,-99.99,,2013-06-05 12:32:00,
2013-06-05 05:43:00,57.0,27.0,-100.00,West,260,2.0,2.0,32,-99.99,,,-99.99,,2013-06-05 12:43:00,
2013-06-05 05:52:00,56.0,27.0,-100.00,NW,323,1.0,1.0,32,-99.99,,,-99.99,,2013-06-05 12:52:00,
2013-06-05 06:02:00,56.0,26.0,-100.00,WSW,243,0.0,1.0,31,-99.99,,,-99.99,,2013-06-05 13:02:00,
2013-06-05 06:12:00,55.0,26.0,-100.00,ESE,123,0.0,2.0,33,-99.99,,,-99.99,,2013-06-05 13:12:00,
2013-06-05 06:22:00,53.0,27.0,-100.00,SSE,148,1.0,1.0,36,-99.99,,,-99.99,,2013-06-05 13:22:00,
2013-06-05 06:32:00,51.0,31.0,-100.00,SE,132,0.0,2.0,46,-99.99,,,-99.99,,2013-06-05 13:32:00,
2013-06-05 06:42:00,51.0,35.0,-100.00,NE,49,1.0,2.0,54,-99.99,,,-99.99,,2013-06-05 13:42:00,
2013-06-05 06:52:00,52.0,35.0,-100.00,NE,56,1.0,1.0,52,-99.99,,,-99.99,,2013-06-05 13:52:00,
2013-06-05 07:01:00,55.0,38.0,-100.00,ENE,75,1.0,1.0,53,-99.99,,,-99.99,,2013-06-05 14:01:00,
2013-06-05 07:12:00,55.0,39.0,-100.00,ENE,71,0.0,2.0,55,-99.99,,,-99.99,,2013-06-05 14:12:00,
2013-06-05 07:22:00,56.0,42.0,-100.00,ENE,57,1.0,2.0,59,-99.99,,,-99.99,,2013-06-05 14:22:00,
2013-06-05 07:32:00,57.0,40.0,-100.00,SSW,213,0.0,2.0,53,-99.99,,,-99.99,,2013-06-05 14:32:00,
2013-06-05 07:42:00,55.0,42.0,-100.00,SW,222,1.0,2.0,61,-99.99,,,-99.99,,2013-06-05 14:42:00,
2013-06-05 07:52:00,55.0,41.0,-100.00,SSW,213,2.0,2.0,60,-99.99,,,-99.99,,2013-06-05 14:52:00,
2013-06-05 08:02:00,57.0,40.0,-100.00,SW,215,1.0,2.0,53,-99.99,,,-99.99,,2013-06-05 15:02:00,
2013-06-05 08:12:00,59.0,41.0,-100.00,SW,218,1.0,3.0,51,-99.99,,,-99.99,,2013-06-05 15:12:00,
2013-06-05 08:22:00,59.0,43.0,-100.00,SW,215,1.0,4.0,55,-99.99,,,-99.99,,2013-06-05 15:22:00,
2013-06-05 08:33:00,60.0,43.0,-100.00,SW,217,3.0,4.0,54,-99.99,,,-99.99,,2013-06-05 15:33:00,
2013-06-05 08:42:00,60.0,44.0,-100.00,SW,225,3.0,5.0,55,-99.99,,,-99.99,,2013-06-05 15:42:00,
2013-06-05 08:53:00,60.0,45.0,-100.00,SW,218,4.0,8.0,57,-99.99,,,-99.99,,2013-06-05 15:53:00,
2013-06-05 09:03:00,60.0,47.0,-100.00,SW,230,4.0,7.0,62,-99.99,,,-99.99,,2013-06-05 16:03:00,
2013-06-05 09:12:00,60.0,47.0,-100.00,WSW,240,5.0,7.0,61,-99.99,,,-99.99,,2013-06-05 16:12:00,
2013-06-05 09:22:00,60.0,46.0,-100.00,WSW,243,5.0,8.0,59,-99.99,,,-99.99,,2013-06-05 16:22:00,
2013-06-05 09:32:00,61.0,46.0,-100.00,SW,236,4.0,7.0,57,-99.99,,,-99.99,,2013-06-05 16:32:00,
2013-06-05 09:42:00,62.0,46.0,-100.00,SW,232,5.0,7.0,56,-99.99,,,-99.99,,2013-06-05 16:42:00,
2013-06-05 09:53:00,63.0,47.0,-100.00,SW,233,5.0,7.0,56,-99.99,,,-99.99,,2013-06-05 16:53:00,
2013-06-05 10:02:00,64.0,47.0,-100.00,SW,234,5.0,9.0,55,-99.99,,,-99.99,,2013-06-05 17:02:00,
2013-06-05 10:12:00,65.0,48.0,-100.00,WSW,238,5.0,10.0,54,-99.99,,,-99.99,,2013-06-05 17:12:00,
2013-06-05 10:22:00,66.0,47.0,-100.00,WSW,250,5.0,7.0,51,-99.99,,,-99.99,,2013-06-05 17:22:00,
2013-06-05 10:32:00,67.0,47.0,-100.00,WSW,239,4.0,8.0,49,-99.99,,,-99.99,,2013-06-05 17:32:00,
2013-06-05 10:42:00,68.0,47.0,-100.00,WSW,252,5.0,10.0,47,-99.99,,,-99.99,,2013-06-05 17:42:00,
2013-06-05 10:52:00,68.0,46.0,-100.00,WSW,246,5.0,9.0,46,-99.99,,,-99.99,,2013-06-05 17:52:00,
2013-06-05 11:02:00,69.0,47.0,-100.00,WSW,247,6.0,10.0,45,-99.99,,,-99.99,,2013-06-05 18:02:00,
2013-06-05 11:12:00,70.0,47.0,-100.00,WSW,248,6.0,11.0,44,-99.99,,,-99.99,,2013-06-05 18:12:00,
2013-06-05 11:22:00,70.0,47.0,-100.00,West,261,7.0,11.0,44,-99.99,,,-99.99,,2013-06-05 18:22:00,
2013-06-05 11:32:00,71.0,47.0,-100.00,WSW,252,6.0,10.0,43,-99.99,,,-99.99,,2013-06-05 18:32:00,
2013-06-05 11:42:00,71.0,47.0,-100.00,WSW,256,7.0,10.0,42,-99.99,,,-99.99,,2013-06-05 18:42:00,
2013-06-05 11:52:00,71.0,47.0,-100.00,WSW,256,7.0,10.0,42,-99.99,,,-99.99,,2013-06-05 18:52:00,
2013-06-05 12:02:00,71.0,48.0,-100.00,WSW,254,7.0,12.0,44,-99.99,,,-99.99,,2013-06-05 19:02:00,
2013-06-05 12:12:00,71.0,48.0,-100.00,WSW,253,7.0,11.0,44,-99.99,,,-99.99,,2013-06-05 19:12:00,
2013-06-05 12:22:00,72.0,49.0,-100.00,WSW,245,7.0,12.0,44,-99.99,,,-99.99,,2013-06-05 19:22:00,
2013-06-05 12:32:00,72.0,49.0,-100.00,WSW,254,7.0,14.0,44,-99.99,,,-99.99,,2013-06-05 19:32:00,
2013-06-05 12:42:00,73.0,49.0,-100.00,WSW,256,7.0,13.0,43,-99.99,,,-99.99,,2013-06-05 19:42:00,
2013-06-05 12:52:00,73.0,49.0,-100.00,West,263,8.0,12.0,42,-99.99,,,-99.99,,2013-06-05 19:52:00,
2013-06-05 13:02:00,74.0,49.0,-100.00,WSW,253,6.0,14.0,41,-99.99,,,-99.99,,2013-06-05 20:02:00,
2013-06-05 13:12:00,74.0,47.0,-100.00,WSW,253,7.0,14.0,39,-99.99,,,-99.99,,2013-06-05 20:12:00,
2013-06-05 13:22:00,74.0,47.0,-100.00,WSW,246,6.0,13.0,38,-99.99,,,-99.99,,2013-06-05 20:22:00,
2013-06-05 13:32:00,75.0,48.0,-100.00,West,260,7.0,12.0,39,-99.99,,,-99.99,,2013-06-05 20:32:00,
2013-06-05 13:42:00,75.0,48.0,-100.00,WSW,242,7.0,13.0,39,-99.99,,,-99.99,,2013-06-05 20:42:00,
2013-06-05 13:52:00,76.0,49.0,-100.00,WSW,258,8.0,13.0,38,-99.99,,,-99.99,,2013-06-05 20:52:00,
2013-06-05 14:02:00,77.0,49.0,-100.00,WSW,254,7.0,11.0,37,-99.99,,,-99.99,,2013-06-05 21:02:00,
2013-06-05 14:12:00,77.0,48.0,-100.00,WSW,252,7.0,13.0,36,-99.99,,,-99.99,,2013-06-05 21:12:00,
2013-06-05 14:22:00,76.0,47.0,-100.00,West,262,7.0,12.0,36,-99.99,,,-99.99,,2013-06-05 21:22:00,
2013-06-05 14:33:00,77.0,47.0,-100.00,West,262,8.0,14.0,35,-99.99,,,-99.99,,2013-06-05 21:33:00,
2013-06-05 14:43:00,78.0,49.0,-100.00,West,277,7.0,15.0,36,-99.99,,,-99.99,,2013-06-05 21:43:00,
2013-06-05 14:53:00,78.0,49.0,-100.00,West,262,7.0,13.0,36,-99.99,,,-99.99,,2013-06-05 21:53:00,
2013-06-05 15:02:00,78.0,50.0,-100.00,West,261,7.0,14.0,37,-99.99,,,-99.99,,2013-06-05 22:02:00,
2013-06-05 15:12:00,77.0,49.0,-100.00,WSW,255,9.0,17.0,38,-99.99,,,-99.99,,2013-06-05 22:12:00,
2013-06-05 15:22:00,77.0,50.0,-100.00,WSW,251,9.0,15.0,39,-99.99,,,-99.99,,2013-06-05 22:22:00,
2013-06-05 15:32:00,77.0,51.0,-100.00,West,259,9.0,14.0,40,-99.99,,,-99.99,,2013-06-05 22:32:00,
2013-06-05 15:42:00,77.0,51.0,-100.00,WSW,258,8.0,14.0,41,-99.99,,,-99.99,,2013-06-05 22:42:00,
2013-06-05 15:52:00,77.0,51.0,-100.00,WSW,257,8.0,14.0,41,-99.99,,,-99.99,,2013-06-05 22:52:00,
2013-06-05 16:02:00,77.0,52.0,-100.00,WSW,252,8.0,14.0,42,-99.99,,,-99.99,,2013-06-05 23:02:00,
2013-06-05 16:12:00,76.0,52.0,-100.00,WSW,256,9.0,13.0,44,-99.99,,,-99.99,,2013-06-05 23:12:00,
2013-06-05 16:21:00,76.0,52.0,-100.00,West,266,8.0,13.0,43,-99.99,,,-99.99,,2013-06-05 23:21:00,
2013-06-05 16:32:00,76.0,52.0,-100.00,WSW,252,6.0,15.0,43,-99.99,,,-99.99,,2013-06-05 23:32:00,
2013-06-05 16:42:00,76.0,52.0,-100.00,West,267,8.0,14.0,43,-99.99,,,-99.99,,2013-06-05 23:42:00,
2013-06-05 16:52:00,76.0,52.0,-100.00,West,267,8.0,14.0,43,-99.99,,,-99.99,,2013-06-05 23:52:00,
2013-06-05 17:02:00,75.0,53.0,-100.00,WSW,258,9.0,15.0,46,-99.99,,,-99.99,,2013-06-06 00:02:00,
2013-06-05 17:12:00,74.0,52.0,-100.00,WSW,253,9.0,15.0,47,-99.99,,,-99.99,,2013-06-06 00:12:00,
2013-06-05 17:22:00,73.0,52.0,-100.00,WSW,257,9.0,14.0,48,-99.99,,,-99.99,,2013-06-06 00:22:00,
2013-06-05 17:32:00,72.0,52.0,-100.00,WSW,257,9.0,14.0,50,-99.99,,,-99.99,,2013-06-06 00:32:00,
2013-06-05 17:42:00,72.0,53.0,-100.00,WSW,257,8.0,14.0,52,-99.99,,,-99.99,,2013-06-06 00:42:00,
2013-06-05 17:51:00,72.0,53.0,-100.00,WSW,257,8.0,14.0,52,-99.99,,,-99.99,,2013-06-06 00:51:00,
2013-06-05 18:02:00,71.0,54.0,-100.00,WSW,253,8.0,14.0,54,-99.99,,,-99.99,,2013-06-06 01:02:00,
2013-06-05 18:12:00,70.0,53.0,-100.00,WSW,251,8.0,13.0,55,-99.99,,,-99.99,,2013-06-06 01:12:00,
2013-06-05 18:21:00,70.0,53.0,-100.00,West,262,8.0,13.0,55,-99.99,,,-99.99,,2013-06-06 01:21:00,
2013-06-05 18:32:00,70.0,54.0,-100.00,WSW,257,6.0,12.0,56,-99.99,,,-99.99,,2013-06-06 01:32:00,
2013-06-05 18:42:00,69.0,53.0,-100.00,West,265,6.0,12.0,57,-99.99,,,-99.99,,2013-06-06 01:42:00,
2013-06-05 18:52:00,69.0,53.0,-100.00,West,265,6.0,12.0,57,-99.99,,,-99.99,,2013-06-06 01:52:00,
2013-06-05 19:01:00,68.0,54.0,-100.00,West,266,7.0,9.0,60,-99.99,,,-99.99,,2013-06-06 02:01:00,
2013-06-05 19:12:00,67.0,53.0,-100.00,West,279,5.0,10.0,61,-99.99,,,-99.99,,2013-06-06 02:12:00,
2013-06-05 19:22:00,67.0,54.0,-100.00,West,268,5.0,8.0,63,-99.99,,,-99.99,,2013-06-06 02:22:00,
2013-06-05 19:32:00,66.0,53.0,-100.00,West,277,4.0,7.0,64,-99.99,,,-99.99,,2013-06-06 02:32:00,
2013-06-05 19:42:00,66.0,53.0,-100.00,West,277,4.0,7.0,64,-99.99,,,-99.99,,2013-06-06 02:42:00,
2013-06-05 19:51:00,66.0,53.0,-100.00,West,277,4.0,7.0,64,-99.99,,,-99.99,,2013-06-06 02:51:00,
2013-06-05 20:02:00,63.0,53.0,-100.00,West,268,4.0,7.0,70,-99.99,,,-99.99,,2013-06-06 03:02:00,
2013-06-05 20:12:00,62.0,53.0,-100.00,WNW,284,4.0,6.0,72,-99.99,,,-99.99,,2013-06-06 03:12:00,
2013-06-05 20:22:00,61.0,53.0,-100.00,West,281,3.0,4.0,74,-99.99,,,-99.99,,2013-06-06 03:22:00,
2013-06-05 20:33:00,60.0,52.0,-100.00,NW,308,3.0,4.0,75,-99.99,,,-99.99,,2013-06-06 03:33:00,
2013-06-05 20:43:00,60.0,52.0,-100.00,NNW,332,1.0,2.0,76,-99.99,,,-99.99,,2013-06-06 03:43:00,
2013-06-05 20:52:00,60.0,52.0,-100.00,NNW,341,1.0,2.0,76,-99.99,,,-99.99,,2013-06-06 03:52:00,
2013-06-05 21:02:00,59.0,52.0,-100.00,North,356,1.0,5.0,78,-99.99,,,-99.99,,2013-06-06 04:02:00,
2013-06-05 21:13:00,59.0,52.0,-100.00,NNW,334,4.0,4.0,79,-99.99,,,-99.99,,2013-06-06 04:13:00,
2013-06-05 21:22:00,58.0,52.0,-100.00,East,92,4.0,4.0,79,-99.99,,,-99.99,,2013-06-06 04:22:00,
2013-06-05 21:33:00,59.0,53.0,-100.00,WSW,248,2.0,2.0,80,-99.99,,,-99.99,,2013-06-06 04:33:00,
2013-06-05 21:42:00,58.0,52.0,-100.00,ENE,65,1.0,2.0,79,-99.99,,,-99.99,,2013-06-06 04:42:00,
2013-06-05 21:52:00,58.0,52.0,-100.00,ENE,65,1.0,2.0,79,-99.99,,,-99.99,,2013-06-06 04:52:00,
2013-06-05 22:02:00,58.0,52.0,-100.00,NE,51,2.0,2.0,81,-99.99,,,-99.99,,2013-06-06 05:02:00,
2013-06-05 22:12:00,59.0,52.0,-100.00,NE,46,2.0,3.0,77,-99.99,,,-99.99,,2013-06-06 05:12:00,
2013-06-05 22:22:00,62.0,51.0,-100.00,NNE,28,2.0,3.0,68,-99.99,,,-99.99,,2013-06-06 05:22:00,
2013-06-05 22:32:00,62.0,51.0,-100.00,East,93,2.0,2.0,66,-99.99,,,-99.99,,2013-06-06 05:32:00,
2013-06-05 22:42:00,63.0,52.0,-100.00,WSW,252,1.0,2.0,68,-99.99,,,-99.99,,2013-06-06 05:42:00,
2013-06-05 22:52:00,62.0,51.0,-100.00,East,87,1.0,1.0,67,-99.99,,,-99.99,,2013-06-06 05:52:00,
2013-06-05 23:02:00,62.0,51.0,-100.00,East,79,0.0,1.0,66,-99.99,,,-99.99,,2013-06-06 06:02:00,
2013-06-05 23:12:00,61.0,50.0,-100.00,SSE,155,0.0,2.0,66,-99.99,,,-99.99,,2013-06-06 06:12:00,
2013-06-05 23:22:00,61.0,50.0,-100.00,NE,51,0.0,2.0,66,-99.99,,,-99.99,,2013-06-06 06:22:00,
2013-06-05 23:32:00,61.0,50.0,-100.00,ENE,57,1.0,2.0,66,-99.99,,,-99.99,,2013-06-06 06:32:00,
2013-06-05 23:42:00,61.0,49.0,-100.00,ENE,73,1.0,2.0,65,-99.99,,,-99.99,,2013-06-06 06:42:00,
2013-06-05 23:52:00,61.0,48.0,-100.00,NE,56,1.0,2.0,63,-99.99,,,-99.99,,2013-06-06 06:52:00,